• In Hungary
  • List of Countries
  • For 7 days
  • Water Temperature
  • Satellite Maps
  • Weather Map
  • News
  • Weather Widgets
  • user-avatar
    Login

    Hourly Weather Stachowo

    Today, 21 September, Friday

    Time Temperature Precipitation Wind Pressure Humidity
    00:00 +19°C° 0 mm 2 mps 752 mmHg 61%
    01:00 +19°C° 0 mm 2 mps 752 mmHg 62%
    02:00 +19°C° 0 mm 2 mps 752 mmHg 62%
    03:00 +18°C° 0 mm 3 mps 752 mmHg 62%
    04:00 +18°C° 0 mm 3 mps 751 mmHg 62%
    05:00 +18°C° 0 mm 3 mps 751 mmHg 62%
    06:00 +19°C° 0 mm 3 mps 751 mmHg 61%
    07:00 +19°C° 0 mm 3 mps 751 mmHg 59%
    08:00 +21°C° 0 mm 3 mps 751 mmHg 54%
    09:00 +23°C° 0 mm 4 mps 751 mmHg 50%
    10:00 +26°C° 0 mm 4 mps 750 mmHg 45%
    11:00 +27°C° 0 mm 4 mps 750 mmHg 42%
    12:00 +28°C° 0 mm 5 mps 749 mmHg 38%
    13:00 +29°C° 0 mm 4 mps 749 mmHg 34%
    14:00 +29°C° 0 mm 4 mps 748 mmHg 36%
    15:00 +28°C° 0 mm 4 mps 747 mmHg 39%
    16:00 +28°C° 0 mm 5 mps 747 mmHg 41%
    17:00 +26°C° 0 mm 5 mps 747 mmHg 45%
    18:00 +25°C° 0 mm 5 mps 746 mmHg 48%
    19:00 +22°C° 0 mm 5 mps 746 mmHg 52%
    20:00 +22°C° 0 mm 5 mps 746 mmHg 53%
    21:00 +22°C° 0 mm 6 mps 745 mmHg 54%
    22:00 +22°C° 0 mm 6 mps 745 mmHg 54%
    23:00 +21°C° 0.3 mm 6 mps 745 mmHg 60%

    Tomorrow, 22 September, Saturday

    Time Temperature Precipitation Wind Pressure Humidity
    00:00 +20°C° 0.3 mm 6 mps 746 mmHg 66%
    01:00 +20°C° 0.3 mm 6 mps 746 mmHg 72%
    02:00 +17°C° 0.5 mm 6 mps 747 mmHg 75%
    03:00 +16°C° 0.5 mm 6 mps 748 mmHg 78%
    04:00 +14°C° 0.5 mm 6 mps 749 mmHg 80%
    05:00 +14°C° 0.1 mm 6 mps 750 mmHg 78%
    06:00 +14°C° 0.1 mm 5 mps 750 mmHg 76%
    07:00 +13°C° 0.1 mm 5 mps 751 mmHg 73%
    08:00 +14°C° 0 mm 5 mps 751 mmHg 67%
    09:00 +15°C° 0 mm 6 mps 752 mmHg 61%
    10:00 +15°C° 0 mm 6 mps 752 mmHg 55%
    11:00 +16°C° 0 mm 7 mps 752 mmHg 52%
    12:00 +17°C° 0 mm 7 mps 752 mmHg 49%
    13:00 +17°C° 0 mm 7 mps 752 mmHg 46%
    14:00 +17°C° 0.1 mm 6 mps 751 mmHg 46%
    15:00 +17°C° 0.1 mm 6 mps 751 mmHg 47%
    16:00 +16°C° 0.1 mm 6 mps 751 mmHg 47%
    17:00 +15°C° 0 mm 5 mps 751 mmHg 51%
    18:00 +14°C° 0 mm 4 mps 751 mmHg 55%
    19:00 +12°C° 0 mm 3 mps 752 mmHg 59%
    20:00 +12°C° 0 mm 3 mps 752 mmHg 60%
    21:00 +12°C° 0 mm 3 mps 752 mmHg 61%
    22:00 +11°C° 0 mm 3 mps 752 mmHg 62%
    23:00 +11°C° 0 mm 3 mps 752 mmHg 63%

    Day after tomorrow, 23 September, Sunday

    Time Temperature Precipitation Wind Pressure Humidity
    00:00 +11°C° 0 mm 3 mps 752 mmHg 63%
    01:00 +11°C° 0 mm 3 mps 752 mmHg 64%
    02:00 +11°C° 0 mm 3 mps 752 mmHg 65%
    03:00 +11°C° 0 mm 3 mps 751 mmHg 67%
    04:00 +10°C° 0 mm 3 mps 751 mmHg 68%
    05:00 +11°C° 0 mm 4 mps 751 mmHg 67%
    06:00 +11°C° 0 mm 4 mps 751 mmHg 67%
    07:00 +12°C° 0 mm 4 mps 751 mmHg 66%
    08:00 +12°C° 0 mm 5 mps 751 mmHg 65%
    09:00 +13°C° 0 mm 5 mps 751 mmHg 65%
    10:00 +14°C° 0 mm 5 mps 751 mmHg 64%
    11:00 +14°C° 0 mm 5 mps 751 mmHg 62%
    12:00 +15°C° 0 mm 5 mps 750 mmHg 61%
    13:00 +15°C° 0 mm 5 mps 750 mmHg 60%
    14:00 +15°C° 0 mm 5 mps 750 mmHg 60%
    15:00 +15°C° 0 mm 4 mps 749 mmHg 60%
    16:00 +15°C° 0 mm 4 mps 749 mmHg 60%
    17:00 +14°C° 0 mm 3 mps 748 mmHg 64%
    18:00 +13°C° 0 mm 3 mps 748 mmHg 68%
    19:00 +14°C° 0 mm 2 mps 747 mmHg 72%
    20:00 +12°C° 0.8 mm 3 mps 746 mmHg 77%
    21:00 +12°C° 0.8 mm 3 mps 745 mmHg 81%
    22:00 +11°C° 0.8 mm 3 mps 744 mmHg 86%
    23:00 +11°C° 6 mm 4 mps 742 mmHg 88%

    24 September, Monday

    Time Temperature Precipitation Wind Pressure Humidity
    00:00 +10°C° 6 mm 5 mps 740 mmHg 90%
    01:00 +10°C° 6 mm 6 mps 738 mmHg 93%
    02:00 +10°C° 1.9 mm 6 mps 738 mmHg 92%
    03:00 +10°C° 1.9 mm 6 mps 737 mmHg 92%
    04:00 +11°C° 1.9 mm 6 mps 736 mmHg 92%
    05:00 +10°C° 2.4 mm 8 mps 738 mmHg 90%
    06:00 +8°C° 2.4 mm 10 mps 739 mmHg 88%
    07:00 +7°C° 2.4 mm 11 mps 741 mmHg 85%
    08:00 +8°C° 0.3 mm 11 mps 742 mmHg 81%
    09:00 +9°C° 0.3 mm 10 mps 744 mmHg 77%
    10:00 +11°C° 0.3 mm 10 mps 746 mmHg 73%
    11:00 +11°C° 0.2 mm 10 mps 746 mmHg 67%
    12:00 +12°C° 0.2 mm 11 mps 747 mmHg 62%
    13:00 +12°C° 0.2 mm 11 mps 748 mmHg 56%
    14:00 +12°C° 0.2 mm 10 mps 748 mmHg 57%
    15:00 +11°C° 0.2 mm 10 mps 749 mmHg 58%
    16:00 +11°C° 0.2 mm 10 mps 749 mmHg 59%
    17:00 +10°C° 0.2 mm 9 mps 750 mmHg 63%
    18:00 +9°C° 0.2 mm 8 mps 751 mmHg 66%
    19:00 +8°C° 0.2 mm 7 mps 752 mmHg 70%
    20:00 +8°C° 0 mm 7 mps 753 mmHg 71%
    21:00 +7°C° 0 mm 6 mps 754 mmHg 71%
    22:00 +7°C° 0 mm 6 mps 755 mmHg 72%
    23:00 +5°C° 0 mm 6 mps 755 mmHg 73%

    25 September, Tuesday

    Time Temperature Precipitation Wind Pressure Humidity
    00:00 +5°C° 0 mm 6 mps 756 mmHg 73%
    01:00 +5°C° 0 mm 6 mps 756 mmHg 74%
    02:00 +6°C° 0 mm 5 mps 756 mmHg 75%
    03:00 +5°C° 0 mm 5 mps 757 mmHg 75%
    04:00 +5°C° 0 mm 5 mps 757 mmHg 76%
    05:00 +6°C° 0 mm 5 mps 758 mmHg 73%
    06:00 +5°C° 0 mm 6 mps 758 mmHg 71%
    07:00 +5°C° 0 mm 6 mps 759 mmHg 68%
    08:00 +8°C° 0 mm 6 mps 759 mmHg 61%
    09:00 +9°C° 0 mm 7 mps 759 mmHg 54%
    10:00 +11°C° 0 mm 7 mps 760 mmHg 47%
    11:00 +11°C° 0 mm 7 mps 760 mmHg 44%
    12:00 +12°C° 0 mm 7 mps 759 mmHg 42%
    13:00 +12°C° 0 mm 7 mps 759 mmHg 39%
    14:00 +12°C° 0 mm 7 mps 759 mmHg 42%
    15:00 +11°C° 0 mm 6 mps 758 mmHg 45%
    16:00 +11°C° 0 mm 6 mps 758 mmHg 48%
    17:00 +10°C° 0 mm 7 mps 757 mmHg 51%
    18:00 +10°C° 0 mm 7 mps 757 mmHg 53%
    19:00 +9°C° 0 mm 8 mps 756 mmHg 56%
    20:00 +9°C° 0.9 mm 8 mps 756 mmHg 63%
    21:00 +7°C° 0.9 mm 9 mps 755 mmHg 70%
    22:00 +7°C° 0.9 mm 9 mps 755 mmHg 77%
    23:00 +7°C° 0.5 mm 8 mps 755 mmHg 77%

    26 September, Wednesday

    Time Temperature Precipitation Wind Pressure Humidity
    00:00 +6°C° 0.5 mm 7 mps 755 mmHg 78%
    01:00 +7°C° 0.5 mm 6 mps 755 mmHg 78%
    02:00 +7°C° 0 mm 6 mps 755 mmHg 79%
    03:00 +5°C° 0 mm 6 mps 755 mmHg 80%
    04:00 +5°C° 0 mm 6 mps 756 mmHg 81%
    05:00 +5°C° 0 mm 6 mps 756 mmHg 79%
    06:00 +7°C° 0 mm 6 mps 756 mmHg 78%
    07:00 +6°C° 0 mm 7 mps 757 mmHg 76%
    08:00 +9°C° 0 mm 7 mps 757 mmHg 70%
    09:00 +10°C° 0 mm 7 mps 758 mmHg 64%
    10:00 +12°C° 0 mm 8 mps 758 mmHg 58%
    11:00 +12°C° 0 mm 7 mps 759 mmHg 56%
    12:00 +14°C° 0 mm 7 mps 759 mmHg 55%
    13:00 +14°C° 0 mm 6 mps 759 mmHg 53%
    14:00 +14°C° 0 mm 5 mps 759 mmHg 54%
    15:00 +14°C° 0 mm 4 mps 760 mmHg 55%
    16:00 +14°C° 0 mm 4 mps 760 mmHg 55%
    17:00 +13°C° 0 mm 3 mps 760 mmHg 59%
    18:00 +12°C° 0 mm 3 mps 760 mmHg 62%
    19:00 +11°C° 0 mm 3 mps 760 mmHg 65%
    20:00 +11°C° 0 mm 3 mps 760 mmHg 67%
    21:00 +10°C° 0 mm 3 mps 761 mmHg 69%
    22:00 +10°C° 0 mm 3 mps 761 mmHg 71%
    23:00 +10°C° 0 mm 3 mps 760 mmHg 73%
    Show more